map of MSU home
MSU - Airport
Location
City:  Maseru, Lesotho
Name:Moshoeshoe International Airport
ICAO:FXMM
IATA:MSU

Details
Type:Airport (Aerodrome, Airfield)
Use:Public/Civil, International (customs port of entry)
Latitude:2927'44"S (-29.462255)
Longitude:2733'09"E (27.552503)
Datum:WGS 1984
Elevation:5348 ft (1630 m)
Variation:23.66W (WMM2015 magnetic declination)
-0.14 annual change
Runways:2
Longest:10498 × 148 ft (3200 × 45 m), paved

Time
Time Zone:UTC+2
Local Time:

Weather
METAR:FXMM 160700Z 00000KT 9999 FEW030 24/15 Q1022 NOSIG
TAF:FXMM 151200Z 1512/1524 28010KT CAVOK
BECMG 1515/1517 00000KT

Related Locations
Nearby:
Farthest:LUP: 11799 mi / 18988 km
Kalaupapa, Molokai, HI, US

Find:

   beyond  
but within

Other Information
Maps:
NOTAMs:
Links:
Sources:

  
  • flag of Lesotho
  

Sectional Chart

Flight Planning
at skyvector.com

Satellite Image

Google Maps Satellite view

 

Copyright © 2004-2019 Karl L. Swartz. All rights reserved.
The Great Circle Mapper name and logo are trademarks of the Great Circle Mapper.
All other trademarks mentioned herein belong to their respective owners.
Please see credits for attibutions and further copyright information.

  Follow gcmap on Facebook Follow gcmap on Twitter Follow gcmap on Google+ GCmap on LinkedIn

hCard Microformat

Geo Microformat